Miscellaneous Local Product
Issued by NWS North Platte, NE

Home | Current Version | Previous Version | Graphics & Text | Print | Product List | Glossary On
Versions: 1 2 3 4 5 6 7 8 9 10 11 12 13 14 15 16 17 18 19 20 21 22 23 24 25 26 27 28 29 30 31 32 33 34 35 36 37 38 39 40 41 42 43 44 45 46 47 48 49 50
000
AXUS43 KLBF 212310
MISLBF


WESTERN AND NORTH CENTRAL NEBRASKA HOURLY WEATHER ROUNDUP
NATIONAL WEATHER SERVICE NORTH PLATTE NE
600 PM CDT THU MAY 21 2015

***STATIONS NOT REPORTING VARIABLES SUCH AS SKY/WEATHER OR
PRESSURE ARE PROVIDED BY THE NEBRASKA DEPARTMENT OF
ROADS...RAWS...AND APRS NETWORKS...AND ARE NOT UNDER
NATIONAL WEATHER SERVICE QUALITY CONTROL***

...OBSERVATIONS IN AND NEAR THE EASTERN PANHANDLE OF NEBRASKA...

CITY           SKY/WX    TMP DP  RH WIND       PRES   REMARKS
PINE RIDGE     CLOUDY    60  39  45 S9        30.16F
CHADRON        CLOUDY    59  43  55 SE12      30.15F
ALLIANCE       CLOUDY    56  43  61 S13       30.17F
SIDNEY         CLOUDY    56  43  61 SE16      30.16F
WHITECLAY        N/A     60  39  46 S12         N/A
BIG SPRINGS      N/A     58  47  66 SE12        N/A
$$

...OBSERVATIONS IN NORTH CENTRAL NEBRASKA...

CITY           SKY/WX    TMP DP  RH WIND       PRES   REMARKS
VALENTINE      SUNNY     66  28  24 SE9       30.18F
THEDFORD       SUNNY     65  35  33 S6        30.19F
AINSWORTH      SUNNY     65  33  29 S8        30.18F
O`NEILL        SUNNY     68  36  30 SW6       30.19S
ORD            SUNNY     65  32  29 VRB5      30.19F
BROKEN BOW     SUNNY     65  38  36 SW7       30.19F
BROWNLEE         N/A     66  19  16 S10         N/A
BREWSTER         N/A     68  34  28 S10         N/A
ROSE             N/A     69  39  33 E6          N/A
NEWPORT          N/A     67  35  30 W5          N/A
COMSTOCK         N/A     70  36  28 S6          N/A
$$

...OBSERVATIONS IN SOUTHWEST NEBRASKA AND FAR NORTHEAST COLORADO...

CITY           SKY/WX    TMP DP  RH WIND       PRES   REMARKS
WRAY           CLOUDY    60  44  54 SE13G22   30.17F
IMPERIAL       CLOUDY    58  43  57 SE13      30.18F
OGALLALA       CLOUDY    59  44  57 SE9       30.18F
NORTH PLATTE   PTSUNNY   62  41  46 S7        30.19F
MCCOOK         PTSUNNY   62  39  42 SE9       30.19F
LEXINGTON      SUNNY     63  39  40 S3        30.20F
PAXTON           N/A     59  46  61 SE12        N/A
GOTHENBURG       N/A     63  33  32 S5          N/A
CALLAWAY         N/A     63  44  50 S10         N/A
$$

...NORTH PLATTE AREA...

CITY           SKY/WX    TMP DP  RH WIND       PRES   REMARKS
AIRPORT        PTSUNNY   62  41  46 S7        30.19F
$$

...SOME WEATHER OBSERVATIONS FROM AROUND THE REGION...

CITY           SKY/WX    TMP DP  RH WIND       PRES   REMARKS
DENVER         CLOUDY    53  45  74 N8        30.11F
LARAMIE        CLOUDY    47  45  93 MISG      30.13F
CHEYENNE       CLOUDY    49  40  71 CALM      30.15F
SCOTTSBLUFF    CLOUDY    56  43  61 SE10      30.16F
RAPID CITY     SUNNY     63  35  35 S12G22    30.15F
PIERRE         SUNNY     71  32  23 CALM      30.13F
WINNER         FAIR      69  31  24 S8        30.17F
SIOUX FALLS    PTSUNNY   73  36  25 N18G25    30.11F
OMAHA          MOSUNNY   73  39  29 W12       30.15F
GRAND ISLAND   SUNNY     66  35  31 S9        30.21F
KANSAS CITY    MOSUNNY   67  44  43 VRB5      30.21F
WICHITA        PTSUNNY   64  44  48 SE9       30.21F
HAYS           MOSUNNY   63  39  42 SE7       30.21F
LIBERAL        CLOUDY    59  43  55 SE6       30.22F
GOODLAND       CLOUDY    57  44  62 S15       30.18F
$$



USA.gov is the U.S. government's official web portal to all federal, state and local government web resources and services.